Tracking 33744 objects as of 14-Apr-2026
HD Live streaming from Space Station
objects crossing your sky now

STARLINK-37054

Track STARLINK-37054 now!
10-day predictions
STARLINK-37054 is classified as:


NORAD ID: 68082
Int'l Code: 2026-042P
Perigee: 350.5 km
Apogee: 351.5 km
Inclination: 53.2 °
Period: 91.4 minutes
Semi major axis: 6721 km
RCS: Unknown
Launch date: March 4, 2026
Source: United States (US)
Launch site: AIR FORCE EASTERN TEST RANGE (AFETR)
Your satellite tracking list
Your tracking list is empty




NASA's NSSDC Master Catalog

Two Line Element Set (TLE):
1 68082U 26042P   26103.94134986  .00168863  00000-0  10817-2 0  9995
2 68082  53.1586  18.4759 0000729  85.0753 275.0351 15.75284404  7655
Source of the keplerian elements: AFSPC